x

Southern Lake Huron (45149) Wave Buoy

6:00am - Tue 30th Aug 2016 All times are CDT. -5 hours from GMT.

  • Sig Wave height 1.0ft
  • Peak Period 2s
  • Wind
    9mph, 11mph gusts
  • Air Temp 72°f
  • Sea Pressure 1021.3mb
  • Southern Lake Huron
  • Southern Lake Huron

More Historic Weather Station data

Upgrade to MSW Pro to gain access to the past 30 days of data for over 8000 Wavebouys and Weather Stations around the globe.

Join Pro

Comparision Forecast

View Surf forecast
   
Tue 08/30 6:00am 1ft 2s 9 11 mph 1021.3mb 72f
5:00am 0.7ft 15s 9 11 mph 1021.1mb 73f
4:00am 0.7ft 2s 9 11 mph 1021.7mb 72f
3:00am 0.3ft 2s 7 9 mph 1021.7mb 72f
2:00am 0.3ft 2s 7 9 mph 1022.2mb 72f
1:00am 0.3ft 3s 9
mph
1022.2mb 71f
12:00am 0.3ft 3s 7
mph
1022.2mb 72f
Mon 08/29 11:00pm 0.7ft 4s 4
mph
1022.4mb 72f
10:00pm 0.7ft 4s 4
mph
1022.6mb 71f
9:00pm 0.7ft 4s 2 4 mph 1023.4mb 71f
8:00pm 0.7ft 4s 7
mph
1023.3mb 71f
7:00pm 0.7ft 4s 4 7 mph 1023.1mb 72f
6:00pm 1ft 4s 7 9 mph 1023.2mb 72f
5:00pm 1ft 4s 4 7 mph 1023.6mb 72f
4:00pm 1ft 4s 4 7 mph 1024.1mb 72f
2:00pm 1.3ft 4s 4 7 mph 1025.2mb 71f
1:00pm 1.3ft 4s 7 9 mph 1025.7mb 70f
12:00pm 1.3ft 4s 4 7 mph 1025.9mb 70f
10:00am 1.3ft 4s 9 13 mph 1025.9mb 71f
9:00am 1.3ft 4s 9 11 mph 1025.6mb 71f
7:00am 1.3ft 3s 7 9 mph 1025.4mb 71f
4:00am 1ft 5s 9 13 mph 1024.2mb 71f
3:00am 1ft 5s 9 11 mph 1024mb 71f
1:00am 1.3ft 5s 7 9 mph 1023.9mb 71f
Sun 08/28 11:00pm 1.3ft 3s 9 11 mph 1023.6mb 72f
9:00pm 1.6ft 3s 9 11 mph 1022.9mb 72f
8:00pm 1.3ft 3s 11 13 mph 1022.5mb 72f
7:00pm 1ft 15s 13 18 mph 1021.7mb 72f
6:00pm 0.7ft 15s 13 16 mph 1021.3mb 72f
5:00pm 0.3ft 3s 9
mph
1021.5mb 74f
4:00pm 0.3ft 3s 7 9 mph 1021.9mb 74f
3:00pm 0.7ft 2s 4
mph
1021.6mb 75f
2:00pm 0.7ft 3s 7 9 mph 1021.8mb 74f
1:00pm 0.7ft 3s 4
mph
1022.2mb 75f
12:00pm 0.7ft 3s 4
mph
1022.2mb 75f
11:00am 1ft 3s 4 7 mph 1022mb 74f
10:00am 1.3ft 3s 7 9 mph 1021.6mb 73f
9:00am 1.3ft 4s 9 11 mph 1021.2mb 73f
7:00am 1.3ft 3s 13 16 mph 1020.5mb 73f
6:00am 1.3ft 3s 13 16 mph 1020.2mb 72f
5:00am 1.3ft 3s 11 13 mph 1019.7mb 72f
4:00am 1.3ft 3s 13 16 mph 1019.6mb 73f
3:00am 1.3ft 4s 11 13 mph 1019.4mb 73f
2:00am 1.6ft 4s 11 13 mph 1019.5mb 72f
1:00am 2ft 4s 13
mph
1019.5mb 72f
12:00am 2ft 3s 13 16 mph 1019.7mb 72f
Sat 08/27 11:00pm 2ft 4s 13 16 mph 1019.8mb 72f
10:00pm 2.5ft 4s 16 18 mph 1019.4mb 72f
9:00pm 2.5ft 4s 18 22 mph 1018.8mb 72f
8:00pm 2.5ft 4s 18 22 mph 1018.4mb 72f
7:00pm 1.6ft 3s 20 25 mph 1018.5mb 72f
6:00pm 1ft 15s 20 22 mph 1018.8mb 73f
5:00pm 0.3ft 3s 11 13 mph 1019.6mb 73f
4:00pm 0.7ft 2s 7 9 mph 1020.2mb 74f
3:00pm 0.7ft 2s 7 9 mph 1020.4mb 73f
2:00pm 0.7ft 3s 4 7 mph 1020.8mb 74f
1:00pm 1ft 3s 2 4 mph 1020.9mb 74f
12:00pm 1.3ft 3s 9
mph
1020.8mb 74f
11:00am 2ft 3s 11 13 mph 1021.1mb 73f
10:00am 2.5ft 4s 13 16 mph 1021.7mb 72f
9:00am 2.5ft 4s 18 20 mph 1021.5mb 71f
8:00am 2ft 4s 18 20 mph 1021.6mb 71f
7:00am 1.6ft 3s 18 22 mph 1021.6mb 71f
6:00am 1.3ft 3s 13
mph
1021.7mb 71f
5:00am 1.3ft 3s 13 16 mph 1021.5mb 71f
4:00am 1.3ft 3s 11 13 mph 1021.5mb 71f
3:00am 1.3ft 3s 11 13 mph 1021.4mb 71f
2:00am 1ft 14s 13
mph
1021.1mb 71f
1:00am 0.7ft 4s 13
mph
1020.7mb 72f
12:00am 0.7ft 4s 9 11 mph 1020.9mb 73f
Fri 08/26 11:00pm 1ft 5s 4 7 mph 1021.1mb 73f
10:00pm 1ft 5s 4 7 mph 1021.1mb 73f
9:00pm 1ft 4s 4 7 mph 1020.6mb 73f
8:00pm 1ft 4s 7
mph
1020.3mb 72f
7:00pm 1ft 4s 7 9 mph 1020mb 72f
6:00pm 1ft 4s 4 7 mph 1019.8mb 73f
5:00pm 1ft 4s 4 7 mph 1019.6mb 73f
3:00pm 1ft 4s 7 9 mph 1019.8mb 73f
2:00pm 1.3ft 4s 2 4 mph 1020mb 73f